[Date Prev][Date Next][Thread Prev][Thread Next] - [Date Index][Thread Index][Author Index]
2 Line ISS Keps 1-31
- Subject: [sarex] 2 Line ISS Keps 1-31
- From: "Dave Larsen Ph.D." <doc@xxxxxxxxxxx>
- Date: Fri, 31 Jan 2003 01:20:52 -0800
ISS
1 25544U 98067A 03031.19703558 .00026088 00000-0 32175-3 0 6425
2 25544 51.6365 348.3339 0005700 96.7769 5.6694 15.59983769239632
----
Via the sarex mailing list at AMSAT.ORG courtesy of AMSAT-NA.
To unsubscribe, send "unsubscribe sarex" to Majordomo@amsat.org
AMSAT Home